Regional Weather Roundup
Issued by NWS

Home | Current Version | Previous Version | Text Only | Print | Product List | Glossary Off
Versions: 1 2 3 4 5 6 7 8 9 10 11 12 13 14 15 16 17 18 19 20 21 22 23 24 25 26 27 28 29 30 31 32 33 34 35 36 37 38 39 40 41 42 43 44 45 46 47 48 49 50

000
ASUS43 KOAX 182302
RWRNE

WEATHER ROUNDUP FOR NEBRASKA
NATIONAL WEATHER SERVICE OMAHA NE
600 PM CDT SAT APR 18 2015

NOTES: SATELLITE DATA IS BEING USED TO AUGMENT CLOUD COVER ABOVE
       12000 FEET.
       "FAIR" INDICATES FEW OR NO CLOUDS BELOW 12,000 FEET WITH NO
       SIGNIFICANT WEATHER AND/OR OBSTRUCTIONS TO VISIBILITY.

  * THESE STATIONS DO NOT REPORT WEATHER SUCH AS RAIN...SNOW OR FOG.

NEZ001>004-019>022-054>056-190000-
NEBRASKA PANHANDLE

CITY           SKY/WX    TMP DP  RH WIND       PRES   REMARKS
SCOTTSBLUFF    PTSUNNY   59  32  36 NW5       29.86S
ALLIANCE       PTSUNNY   58  41  53 NW8       29.84S
CHADRON        CLOUDY    51  45  79 N8        29.91R
SIDNEY         LGT RAIN  49  38  65 N12       29.87S
$$

NEZ057>060-069>072-079>082-190000-
SOUTHWEST NEBRASKA

CITY           SKY/WX    TMP DP  RH WIND       PRES   REMARKS
NORTH PLATTE   MOSUNNY   66  47  50 N7        29.75F
IMPERIAL       LGT RAIN  55  42  61 SW12      29.80R
LEXINGTON      MOSUNNY   68  51  54 E3        29.74F
MCCOOK         MOSUNNY   70  40  33 SE8       29.72F
$$

NEZ005>010-023>029-035>040-094-190000-
NORTH CENTRAL NEBRASKA

CITY           SKY/WX    TMP DP  RH WIND       PRES   REMARKS
VALENTINE      PTSUNNY   66  45  46 N7        29.81F
AINSWORTH      MOSUNNY   63  52  67 NE3       29.82F
BROKEN BOW     MOSUNNY   69  51  52 E12       29.76F
ORD            PTSUNNY   68  49  50 NE3       29.76F
$$

NEZ041-046>049-061>064-073>077-083>087-190000-
SOUTH CENTRAL NEBRASKA

CITY           SKY/WX    TMP DP  RH WIND       PRES   REMARKS
GRAND ISLAND   MOSUNNY   70  54  56 E13       29.78F
HASTINGS       PTSUNNY   70  55  59 SE10      29.75F
KEARNEY *      CLOUDY    61  46  59 E14       29.77F
YORK           CLOUDY    64  59  82 E14       29.78F
$$

NEZ011>018-030>034-042>045-190000-
NORTHEAST NEBRASKA

CITY           SKY/WX    TMP DP  RH WIND       PRES   REMARKS
BLAIR          CLOUDY    62  54  75 S5        29.81R
COLUMBUS *     CLOUDY    64  54  68 SE8       29.81F
FREMONT        CLOUDY    64  58  80 S3        29.81F
TEKAMAH        CLOUDY    63  58  83 N5        29.81F
$$

NEZ050>053-065>068-078-088>093-190000-
SOUTHEAST NEBRASKA

CITY           SKY/WX    TMP DP  RH WIND       PRES   REMARKS
LINCOLN        CLOUDY    66  56  70 SE10      29.80F
OMAHA EPPLEY   CLOUDY    61  58  90 E9        29.80F
FALLS CITY     CLOUDY    62  59  90 E12       29.82F
NEBRASKA CITY  CLOUDY    62  60  95 E10       29.83F
PLATTSMOUTH    CLOUDY    61  57  86 SE6       29.83R
$$

NEZ044-045-051>053-067-190000-
OMAHA AREA

CITY           SKY/WX    TMP DP  RH WIND       PRES   REMARKS
OMAHA EPPLEY   CLOUDY    61  58  90 E9        29.80F
BLAIR          CLOUDY    62  54  75 S5        29.81R
FREMONT        CLOUDY    64  58  80 S3        29.81F
OFFUTT AFB     PTSUNNY   62  57  86 SW6       29.82R
PLATTSMOUTH    CLOUDY    61  57  86 SE6       29.83R
WAHOO          FAIR      64  56  75 S8        29.81F
$$


USA.gov is the U.S. government's official web portal to all federal, state and local government web resources and services.